Find Starlink 1784

NORAD ID: 46687 Int'l Des: 2020-073 Owner: SPXS Country: US Constellation: starlink operational
LEOCIRCULAR

現在のビュー

3D地球を読み込み中...

About Starlink 1784

Starlink 1784 (NORAD 46687) is a starlink constellation satellite (v1.0) launched Oct 18, 2020 by SPXS of US. It operates in LEO, CIRCULAR orbit with a mass of 260.00 kg.

Starlink 1784について

説明を読み込み中...

次回通過

Passes for default location (London). Set your location on the main map for personalized predictions.

高度履歴

Loading altitude history...

軌道要素

1 46687U 20073T 26166.66667824 .00283601 40627-4 92784-3 0 9995
2 46687 53.0357 59.9634 0003553 223.5643 136.7190 15.90153321 5960
Epoch: Jun 15, 2026 • Age: 6 hours

現在のステータス

高度 304.9 km
速度 7.72 km/s
衛星直下点 -6.94°S, 179.32°E
打ち上げ日 Oct 18, 2020
運用期間 5.6 years
タイプ internet

技術仕様

分類 Payload
質量 260.00 kg
乾燥質量 248.00 kg
総質量 260.00 kg
長さ 0.20 m
直径 2.80 m
スパン 9.00 m
形状 Box + pan
製造者 SPXS
バスタイプ Starlink
フェーズステータス In Orbit
所有者/国 SPXS/US

Most Searched